[[[{"header":{"parameterUnit":"kt","parameterCategory":2,"dx":1,"dy":1,"la1":30.253999710083008,"la2":30.299108505249023,"lo1":-89.0895004272461,"lo2":-89.04439544677734,"nx":28,"ny":28,"refTime":"2022-10-14T21:00:00:Z","depth":"0","parameterNumber":2,"parameterNumberName":"U-component_of_CURRENTS"},"data":[0.0343,0.0531,0.0505,0.0616,0.0602,0.0678,0.0771,0.0917,0.1109,0.1544,0.186,0.2108,0.2599,0.3156,0.3234,0.3102,0.2657,0.2656,0.228,0.2573,0.2519,0.2467,0.2549,0.2968,0.2967,0.2079,0.2072,0.2068,0.0075,0.0118,0.0223,0.0303,0.0307,0.0206,0.0375,0.0545,0.0874,0.1183,0.1537,0.2155,0.2638,0.2825,0.3085,0.2886,0.2528,0.2699,0.2384,0.2263,0.2528,0.2635,0.3079,0.3079,0.3079,0.3079,0.3079,0.3079,-0.0413,-0.0249,-0.0123,-0.0066,-0.0057,0.0001,0.0192,0.0353,0.0641,0.1082,0.1277,0.1713,0.2246,0.2439,0.2281,0.2313,0.1996,0.2262,0.212,0.1815,0.1804,0.1986,0.2346,0.2342,0.2339,0.2336,0.2333,0,-0.0786,-0.0754,-0.0526,-0.0461,-0.0351,-0.0216,-0.0012,0.0138,0.0408,0.0658,0.1075,0.1346,0.1708,0.1956,0.1953,0.1855,0.1413,0.1594,0.1516,0.1833,0.1524,0.1415,0.1472,0.1821,0.1814,0.1809,0.1805,0.1803,-0.1244,-0.1066,-0.0829,-0.0758,-0.0628,-0.037,-0.026,-0.0057,0.0116,0.0566,0.0704,0.103,0.1288,0.1396,0.1381,0.1312,0.1095,0.1431,0.142,0.1342,0.1204,0.0905,0.0817,0.1728,0.1737,0.1745,0.1751,0,-0.1418,-0.138,-0.1075,-0.0808,-0.0755,-0.0518,-0.0313,-0.0122,0.0097,0.0378,0.0465,0.0702,0.0896,0.0829,0.0878,0.0784,0.081,0.0858,0.1066,0.1098,0.1212,0.1092,0.1078,0.1004,0.1015,0.102,0.1024,0,-0.1642,-0.1438,-0.1287,-0.1105,-0.0848,-0.0728,-0.0449,-0.0291,-0.0089,0.0144,0.023,0.0459,0.0437,0.0523,0.0438,0.0579,0.0546,0.064,0.0642,0.0854,0.0879,0.0887,0.0775,0.0546,0.0546,0.0546,0.0545,0,-0.1815,-0.1596,-0.1396,-0.1306,-0.1044,-0.0916,-0.0764,-0.0526,-0.0357,-0.0102,0.0032,0.0179,0.0351,0.0339,0.0386,0.032,0.0501,0.0417,0.0565,0.0568,0.0836,0.086,0.1067,0.0545,0.0545,0.0545,0.0545,0,-0.1974,-0.1823,-0.158,-0.1369,-0.1302,-0.1124,-0.0841,-0.0648,-0.0414,-0.0317,-0.0153,-0.0058,0.014,0.0083,0.0249,0.0189,0.0209,0.0238,0.0239,0.0396,0.0317,0.0522,0.0817,0.0789,0.0166,0.0164,0.0162,0,-0.2155,-0.1922,-0.191,-0.1634,-0.1478,-0.1418,-0.1219,-0.1013,-0.0859,-0.0636,-0.0497,-0.0223,-0.024,-0.0109,-0.0034,0.0068,0.0136,0.0069,0.012,0.0121,0.0181,0.042,0.07,0.0761,0.0134,0.0137,0.0139,0,-0.23,-0.2175,-0.2149,-0.203,-0.1877,-0.1726,-0.1537,-0.1298,-0.1127,-0.0939,-0.0732,-0.0393,-0.0368,-0.0217,-0.0114,-0.0024,0.0079,-0.007,-0.0067,-0.0146,0.0198,0.0354,0.0386,0.009,0.0095,0.0099,0.0116,0,-0.2391,-0.2313,-0.2265,-0.2096,-0.1992,-0.1863,-0.1699,-0.1555,-0.1465,-0.1318,-0.1025,-0.0816,-0.0557,-0.047,-0.0387,-0.015,-0.0213,-0.0211,-0.03,-0.0139,-0.0154,-0.0136,-0.0362,-0.0363,-0.0364,-0.0364,0,0,-0.2554,-0.2446,-0.243,-0.231,-0.2227,-0.2163,-0.2013,-0.1862,-0.1611,-0.1508,-0.1528,-0.1055,-0.0905,-0.0574,-0.0488,-0.04,-0.0402,-0.0432,-0.0199,-0.0181,-0.0164,-0.0172,-0.0154,-0.0366,-0.0366,-0.0367,-0.0367,0,-0.2569,-0.2562,-0.2486,-0.2386,-0.2274,-0.2173,-0.2149,-0.1973,-0.1878,-0.161,-0.1522,-0.1332,-0.1,-0.0829,-0.07,-0.0438,-0.0482,-0.0384,-0.0302,-0.0211,-0.0192,-0.0175,-0.0179,-0.0162,-0.0369,-0.0369,-0.0369,0,-0.263,-0.2586,-0.2558,-0.2429,-0.2349,-0.2199,-0.2228,-0.2115,-0.1957,-0.1883,-0.1623,-0.1492,-0.1273,-0.1002,-0.0884,-0.092,-0.0575,-0.0633,-0.0623,-0.0613,-0.0524,-0.0499,-0.0478,-0.0774,-0.0776,-0.0778,0,0,-0.2636,-0.2594,-0.2481,-0.2423,-0.2383,-0.2263,-0.2195,-0.2132,-0.1977,-0.1906,-0.1754,-0.1569,-0.1356,-0.1242,-0.1047,-0.0796,-0.0792,-0.0689,-0.067,-0.0655,-0.0637,-0.0544,-0.0519,-0.0786,-0.0786,-0.0786,0,0,-0.2629,-0.2547,-0.2536,-0.2467,-0.2352,-0.2199,-0.2148,-0.2097,-0.1913,-0.1916,-0.1784,-0.1734,-0.1487,-0.139,-0.1506,-0.1082,-0.1152,-0.1123,-0.1165,-0.114,-0.112,-0.1156,-0.1523,0,0,0,0,0,-0.2604,-0.2561,-0.2554,-0.2535,-0.2362,-0.2204,-0.2169,-0.2103,-0.2131,-0.2056,-0.1903,-0.1903,-0.1408,-0.1507,-0.1452,-0.1344,-0.0886,-0.0868,-0.0851,-0.0844,-0.0819,-0.0797,0,0,0,0,0,0,-0.2596,-0.2572,-0.2555,-0.2417,-0.2378,-0.2205,-0.2232,-0.2206,-0.2137,-0.2136,-0.1925,-0.1896,-0.1798,-0.1531,-0.1483,-0.1381,-0.154,-0.0879,-0.0864,-0.085,-0.0836,-0.0815,-0.0796,0,0,0,0,0,-0.2589,-0.257,-0.2336,-0.2412,-0.2379,-0.2278,-0.2235,-0.2214,-0.2136,-0.198,-0.195,-0.2105,-0.1798,-0.175,-0.1502,-0.1405,-0.1573,-0.1555,-0.0869,-0.0857,-0.0847,-0.0825,0,0,0,0,0,0,-0.2585,-0.2492,-0.2324,-0.2309,-0.2471,-0.2283,-0.2258,-0.2222,-0.198,-0.1954,-0.2154,-0.2155,-0.1795,-0.1759,-0.1723,-0.1417,-0.16,-0.1582,-0.157,-0.086,-0.0851,-0.0843,0,0,0,0,0,0,-0.2503,-0.2479,-0.2315,-0.2394,-0.2385,-0.2288,-0.2267,-0.2066,-0.1976,-0.216,-0.2158,-0.2158,-0.1861,-0.1764,-0.1736,-0.1421,-0.1621,-0.1603,-0.1591,-0.1584,-0.0852,-0.0845,0,0,0,0,0,0,-0.249,-0.2468,-0.2395,-0.2389,-0.2381,-0.2179,-0.2103,-0.1924,-0.2073,-0.2168,-0.2085,-0.2091,-0.1868,-0.1836,-0.1745,-0.1443,-0.1427,-0.162,-0.1608,-0.16,-0.1594,0,0,0,0,0,0,0,-0.2479,-0.2662,-0.2447,-0.2384,-0.2378,-0.2168,-0.2161,-0.2154,-0.2074,-0.2079,-0.2084,-0.2089,-0.172,-0.1701,-0.1682,-0.146,0,0,-0.1622,-0.1614,0,0,0,0,0,0,0,0,-0.2667,-0.2663,-0.2446,-0.2445,-0.2443,-0.2167,-0.2161,-0.2155,-0.2075,-0.2079,-0.2083,-0.2087,-0.1715,-0.17,-0.1684,0,0,0,0,0,0,0,0,0,0,0,0,0,0,0,-0.2446,-0.2445,0,-0.2166,-0.2161,-0.2157,-0.2075,-0.2079,-0.2082,-0.2085,-0.1711,-0.1698,-0.1685,0,0,0,0,0,0,0,0,0,0,0,0,0,0,0,0,0,0,0,0,0,0,0,0,0,0,0,0,0,0,0,0,0,0,0,0,0,0,0,0,0,0,0,0,0,0,0,0,0,0,0,0,0,0,0,0,0,0,0,0,0,0,0,0,0,0,0,0,0]}],[{"header":{"parameterUnit":"kt","parameterCategory":2,"dx":1,"dy":1,"la1":30.253999710083008,"la2":30.299108505249023,"lo1":-89.0895004272461,"lo2":-89.04439544677734,"nx":28,"ny":28,"refTime":"2022-10-14T21:00:00:Z","depth":"0","parameterNumber":3,"parameterNumberName":"V-component_of_CURRENTS"},"data":[0.2531,0.2737,0.2844,0.2935,0.2993,0.314,0.3269,0.3428,0.3587,0.383,0.3961,0.4116,0.391,0.2427,0.1437,0.1217,0.0962,0.0764,0.0636,0.1134,0.1182,0.1229,0.122,0.0756,0.0755,0.0311,0.0305,0.0302,0.2433,0.258,0.2756,0.2876,0.2941,0.2926,0.3183,0.3386,0.3613,0.3827,0.4025,0.4051,0.347,0.2951,0.2156,0.1607,0.1506,0.1353,0.1349,0.1407,0.1932,0.1946,0.1628,0.1628,0.1629,0.1629,0.1629,0.1629,0.2222,0.2395,0.2622,0.2726,0.279,0.2878,0.3121,0.3353,0.3628,0.3971,0.4132,0.4252,0.3974,0.3176,0.2658,0.1991,0.2064,0.1892,0.1782,0.1674,0.1662,0.2067,0.1907,0.1906,0.1905,0.1904,0.1904,0,0.2027,0.2097,0.2435,0.2499,0.2658,0.2883,0.3193,0.3343,0.3769,0.3955,0.4221,0.4303,0.4015,0.3609,0.2944,0.2627,0.2266,0.2321,0.2138,0.2244,0.1978,0.1928,0.2543,0.2551,0.2554,0.2556,0.2557,0.2558,0.17,0.1924,0.2284,0.235,0.2566,0.2888,0.307,0.344,0.3634,0.4055,0.4141,0.419,0.4161,0.3633,0.3182,0.2668,0.2555,0.2403,0.2509,0.22,0.2017,0.188,0.1888,0.2586,0.2582,0.258,0.2577,0,0.1527,0.1714,0.2131,0.2556,0.2642,0.2889,0.3279,0.3497,0.3738,0.397,0.4051,0.4176,0.4016,0.369,0.3477,0.315,0.2737,0.2751,0.2746,0.2676,0.2216,0.2095,0.1826,0.1814,0.2416,0.241,0.2404,0,0.1371,0.1682,0.2016,0.225,0.2576,0.2871,0.3206,0.3369,0.3597,0.3793,0.3865,0.3975,0.3789,0.3631,0.338,0.3028,0.3194,0.2882,0.2807,0.2908,0.2884,0.277,0.2656,0.3214,0.3215,0.3217,0.3218,0,0.1224,0.1634,0.1983,0.212,0.2566,0.2736,0.2945,0.3133,0.3287,0.3509,0.3634,0.3647,0.3683,0.3573,0.328,0.3299,0.3142,0.3158,0.2852,0.2824,0.2957,0.2933,0.2803,0.322,0.3221,0.3221,0.3222,0,0.1204,0.1446,0.1804,0.2315,0.2413,0.2558,0.2871,0.3014,0.3153,0.3238,0.3327,0.3361,0.3367,0.3288,0.3183,0.3177,0.3099,0.3026,0.3019,0.2863,0.2713,0.2659,0.2633,0.2445,0.2785,0.2784,0.2783,0,0.1167,0.1478,0.1621,0.1952,0.2173,0.2286,0.2407,0.2555,0.2662,0.2844,0.2842,0.3026,0.2871,0.2974,0.2972,0.2929,0.2938,0.2927,0.2933,0.2931,0.2729,0.2702,0.2799,0.262,0.2766,0.2768,0.2769,0,0.1103,0.1472,0.1488,0.171,0.1876,0.2041,0.21,0.2323,0.2475,0.2508,0.2746,0.2745,0.2801,0.2855,0.2845,0.2887,0.2883,0.2854,0.2859,0.2771,0.2945,0.2699,0.2684,0.2946,0.2952,0.2956,0.2756,0,0.1237,0.1419,0.1472,0.1652,0.1772,0.1922,0.2064,0.2115,0.2203,0.234,0.2475,0.2512,0.2679,0.262,0.2637,0.275,0.2679,0.272,0.2777,0.2797,0.2682,0.2692,0.2588,0.2589,0.259,0.259,0,0,0.1174,0.137,0.1458,0.1563,0.1728,0.1817,0.1978,0.2027,0.2237,0.2342,0.2309,0.2512,0.2524,0.2658,0.2649,0.2619,0.2617,0.2681,0.2751,0.2767,0.2784,0.2681,0.2689,0.2592,0.2592,0.2592,0.2593,0,0.1228,0.1328,0.1413,0.1529,0.1732,0.186,0.1883,0.2109,0.218,0.2291,0.2365,0.242,0.2503,0.259,0.2633,0.2622,0.2645,0.2586,0.2667,0.2751,0.2767,0.2782,0.2682,0.269,0.2595,0.2595,0.2595,0,0.1221,0.1377,0.1447,0.1672,0.1803,0.1933,0.2035,0.2167,0.2269,0.2348,0.2453,0.2487,0.2563,0.2612,0.2626,0.2645,0.2684,0.2658,0.2654,0.2754,0.2848,0.2864,0.2877,0.2711,0.2711,0.2711,0,0,0.1243,0.1341,0.1605,0.1713,0.1785,0.1989,0.2078,0.2187,0.2321,0.2352,0.2442,0.2512,0.2565,0.2595,0.2645,0.2671,0.2714,0.2671,0.2665,0.2661,0.2755,0.2848,0.2862,0.2712,0.2712,0.2712,0,0,0.1279,0.1566,0.1634,0.1782,0.1942,0.2201,0.2248,0.2339,0.2406,0.2405,0.2514,0.2534,0.2562,0.2602,0.2607,0.2658,0.2682,0.2682,0.2642,0.2635,0.263,0.2739,0.2676,0,0,0,0,0,0.1477,0.1535,0.1594,0.1656,0.1976,0.2168,0.2205,0.2367,0.24,0.2397,0.2482,0.2517,0.2637,0.2644,0.2656,0.2651,0.2724,0.2722,0.272,0.2673,0.2666,0.266,0,0,0,0,0,0,0.1503,0.1573,0.1596,0.1862,0.1941,0.2166,0.2267,0.2308,0.2402,0.2413,0.2506,0.2521,0.2597,0.2641,0.2651,0.2645,0.2673,0.2723,0.2721,0.272,0.267,0.2665,0.266,0,0,0,0,0,0.1525,0.1582,0.2053,0.1861,0.1928,0.2176,0.2264,0.2299,0.2333,0.2501,0.2519,0.2455,0.2595,0.2608,0.2647,0.2639,0.2666,0.267,0.2722,0.272,0.2719,0.2667,0,0,0,0,0,0,0.1542,0.1565,0.207,0.2098,0.1864,0.2162,0.221,0.2291,0.2411,0.2441,0.2455,0.2462,0.2594,0.2604,0.2613,0.2634,0.2661,0.2664,0.2667,0.2721,0.272,0.2719,0,0,0,0,0,0,0.1539,0.1585,0.2082,0.2075,0.2102,0.2149,0.2192,0.2228,0.2404,0.2349,0.2367,0.2456,0.2557,0.2601,0.2609,0.266,0.2656,0.266,0.2662,0.2664,0.272,0.2719,0,0,0,0,0,0,0.1562,0.1602,0.2066,0.2087,0.211,0.2411,0.2175,0.2459,0.2511,0.2333,0.2514,0.2515,0.2551,0.2562,0.2605,0.2653,0.2659,0.2656,0.2659,0.2661,0.2662,0,0,0,0,0,0,0,0.158,0.1272,0.1941,0.2097,0.2117,0.2364,0.2368,0.2372,0.2511,0.2513,0.2514,0.2515,0.2636,0.264,0.2644,0.2647,0,0,0.2656,0.2658,0,0,0,0,0,0,0,0,0.1259,0.1269,0.1942,0.195,0.1958,0.2365,0.2368,0.2371,0.2512,0.2513,0.2513,0.2514,0.2637,0.264,0.2643,0,0,0,0,0,0,0,0,0,0,0,0,0,0,0,0.1943,0.195,0,0.2365,0.2368,0.2371,0.2512,0.2512,0.2513,0.2514,0.2638,0.2641,0.2643,0,0,0,0,0,0,0,0,0,0,0,0,0,0,0,0,0,0,0,0,0,0,0,0,0,0,0,0,0,0,0,0,0,0,0,0,0,0,0,0,0,0,0,0,0,0,0,0,0,0,0,0,0,0,0,0,0,0,0,0,0,0,0,0,0,0,0,0,0]}]],[[{"header":{"parameterUnit":"kt","parameterCategory":2,"dx":1,"dy":1,"la1":30.253999710083008,"la2":30.299108505249023,"lo1":-89.0895004272461,"lo2":-89.04439544677734,"nx":28,"ny":28,"refTime":"2022-10-14T21:00:00:Z","depth":"2","parameterNumber":2,"parameterNumberName":"U-component_of_CURRENTS"},"data":[-0.0337,-0.0325,-0.0371,-0.0263,-0.0259,-0.0145,-0.0084,0.0018,0.0175,0.0358,0.0524,0.0656,0.0689,0.0744,0.0708,0.0742,0.0535,0.0719,0.0774,0.0374,0.034,0.0169,0.0056,0,0,0,0,0,-0.0444,-0.0467,-0.0467,-0.045,-0.0397,-0.044,-0.0348,-0.0261,-0.0134,0.0041,0.0164,0.0307,0.05,0.0544,0.0654,0.0718,0.0512,0.0702,0.0384,0.0348,0.0315,0.0261,0.0676,0.0675,0.0675,0.0675,0,0,-0.062,-0.0602,-0.063,-0.0615,-0.0595,-0.0527,-0.0472,-0.0437,-0.0338,-0.0242,-0.0207,-0.0014,0.002,0.0416,0.0489,0.0524,0.0451,0.0411,0.0381,0.035,0.0317,0.0389,0.0736,0.0736,0.0736,0.0737,0.0737,0,-0.0736,-0.0774,-0.0791,-0.0776,-0.0762,-0.072,-0.0708,-0.0654,-0.0657,-0.0599,-0.0485,-0.04,-0.0191,-0.0018,0.0254,0.0303,0.0058,0.0226,0.0024,-0.0314,-0.0255,-0.0284,-0.0321,-0.0031,-0.0035,-0.0038,-0.0041,-0.0042,-0.0876,-0.0858,-0.0923,-0.091,-0.0959,-0.0932,-0.0901,-0.094,-0.0888,-0.0853,-0.0786,-0.0691,-0.0578,-0.0286,-0.0222,-0.0033,-0.0178,0.0114,-0.0123,-0.0305,-0.0325,-0.0358,-0.0388,-0.0088,-0.0082,-0.0077,-0.0074,0,-0.0962,-0.0997,-0.1003,-0.1073,-0.1093,-0.106,-0.1096,-0.1044,-0.1051,-0.0966,-0.0952,-0.0972,-0.0855,-0.0827,-0.0731,-0.068,-0.0531,-0.0416,-0.0406,-0.039,-0.0431,-0.045,-0.011,-0.0099,-0.009,-0.0082,-0.0076,0,-0.1076,-0.1101,-0.1145,-0.1163,-0.1143,-0.1211,-0.1179,-0.1219,-0.1192,-0.1141,-0.1213,-0.1137,-0.1216,-0.111,-0.1081,-0.0857,-0.0958,-0.0816,-0.0798,-0.0873,-0.0857,-0.1381,-0.1418,-0.109,-0.1092,-0.1095,-0.1097,0,-0.1141,-0.122,-0.1201,-0.123,-0.1314,-0.1324,-0.1374,-0.1399,-0.1405,-0.138,-0.1367,-0.1316,-0.1254,-0.1251,-0.1168,-0.1291,-0.1034,-0.1212,-0.0922,-0.0903,-0.1048,-0.1044,-0.11,-0.11,-0.1101,-0.1102,-0.1102,0,-0.1251,-0.1288,-0.1274,-0.1354,-0.1362,-0.1412,-0.1436,-0.1493,-0.1512,-0.1562,-0.1524,-0.1573,-0.141,-0.1518,-0.1372,-0.1461,-0.1393,-0.1369,-0.136,-0.1327,-0.1393,-0.1121,-0.0804,-0.1247,-0.125,-0.1252,-0.1255,0,-0.1304,-0.1323,-0.1397,-0.1444,-0.1446,-0.155,-0.1593,-0.166,-0.1756,-0.1803,-0.1754,-0.1741,-0.1774,-0.1685,-0.1634,-0.157,-0.1456,-0.1566,-0.1656,-0.1656,-0.1409,-0.1107,-0.1144,-0.0857,-0.1287,-0.1283,-0.1281,0,-0.1334,-0.1415,-0.1435,-0.1455,-0.1578,-0.1629,-0.1685,-0.1762,-0.1768,-0.1951,-0.194,-0.1852,-0.1859,-0.1861,-0.1796,-0.1754,-0.1497,-0.1864,-0.1873,-0.1662,-0.1406,-0.1178,-0.1133,-0.1617,-0.1616,-0.1614,-0.1307,0,-0.1421,-0.1456,-0.1468,-0.1533,-0.1602,-0.1656,-0.1763,-0.1868,-0.2,-0.21,-0.2096,-0.2151,-0.2186,-0.2095,-0.2112,-0.1921,-0.1967,-0.21,-0.2222,-0.2078,-0.1962,-0.194,-0.2318,-0.2326,-0.2332,-0.2338,0,0,-0.1459,-0.1467,-0.1541,-0.1579,-0.1629,-0.1764,-0.1787,-0.1911,-0.2159,-0.2196,-0.2318,-0.2403,-0.2431,-0.2275,-0.2202,-0.2274,-0.2296,-0.2313,-0.2177,-0.2157,-0.214,-0.202,-0.1992,-0.2349,-0.2352,-0.2354,-0.2356,0,-0.1479,-0.1508,-0.1506,-0.1585,-0.1691,-0.1785,-0.1806,-0.1992,-0.2107,-0.2274,-0.2323,-0.2305,-0.2531,-0.247,-0.2467,-0.237,-0.2424,-0.2375,-0.2238,-0.223,-0.2201,-0.2178,-0.2052,-0.2021,-0.2372,-0.2371,-0.2371,0,-0.1503,-0.1555,-0.1547,-0.1645,-0.1732,-0.1791,-0.1908,-0.2011,-0.2088,-0.2277,-0.2481,-0.2512,-0.2611,-0.2617,-0.2648,-0.273,-0.2591,-0.2676,-0.2649,-0.2713,-0.2717,-0.2685,-0.2656,-0.301,-0.301,-0.301,0,0,-0.1531,-0.1542,-0.1627,-0.1648,-0.1678,-0.1839,-0.1927,-0.2027,-0.2189,-0.2286,-0.2464,-0.2599,-0.2613,-0.2683,-0.2779,-0.282,-0.2884,-0.2732,-0.2703,-0.2676,-0.2722,-0.2721,-0.2692,-0.3011,-0.3011,-0.3011,0,0,-0.156,-0.161,-0.1628,-0.1645,-0.1756,-0.1934,-0.2011,-0.2116,-0.2318,-0.2334,-0.2506,-0.2554,-0.2599,-0.2751,-0.2743,-0.2727,-0.2882,-0.2888,-0.2547,-0.2513,-0.2485,-0.2498,-0.2799,0,0,0,0,0,-0.1576,-0.1576,-0.1588,-0.16,-0.1751,-0.1884,-0.1928,-0.2109,-0.217,-0.2252,-0.2421,-0.2462,-0.2779,-0.2777,-0.2809,-0.2638,-0.3013,-0.3013,-0.3012,-0.2587,-0.2549,-0.2517,0,0,0,0,0,0,-0.158,-0.1586,-0.1591,-0.1733,-0.1771,-0.1885,-0.1981,-0.2035,-0.2169,-0.2197,-0.2432,-0.2466,-0.2573,-0.2765,-0.2793,-0.2624,-0.2789,-0.3013,-0.3013,-0.3012,-0.2574,-0.2543,-0.2516,0,0,0,0,0,-0.1585,-0.159,-0.1755,-0.1743,-0.1775,-0.1998,-0.1985,-0.2031,-0.2177,-0.2332,-0.2378,-0.2309,-0.2568,-0.2605,-0.2782,-0.2605,-0.277,-0.2781,-0.3013,-0.3012,-0.3012,-0.2559,0,0,0,0,0,0,-0.1588,-0.1695,-0.1771,-0.1793,-0.1753,-0.2004,-0.2038,-0.2025,-0.2311,-0.2353,-0.2207,-0.2223,-0.2565,-0.2594,-0.262,-0.2587,-0.2755,-0.2765,-0.2772,-0.3012,-0.3012,-0.3012,0,0,0,0,0,0,-0.1693,-0.1711,-0.1783,-0.1784,-0.181,-0.2008,-0.2037,-0.2132,-0.2311,-0.2176,-0.2196,-0.221,-0.2493,-0.2585,-0.2607,-0.2754,-0.2743,-0.2753,-0.276,-0.2764,-0.3012,-0.3012,0,0,0,0,0,0,-0.1707,-0.1723,-0.1782,-0.1801,-0.1824,-0.2104,-0.2101,-0.224,-0.233,-0.2161,-0.2338,-0.2341,-0.2478,-0.2507,-0.2597,-0.2733,-0.2749,-0.2743,-0.275,-0.2755,-0.2758,0,0,0,0,0,0,0,-0.1719,-0.1528,-0.1614,-0.1815,-0.1835,-0.1994,-0.2002,-0.2011,-0.2331,-0.2334,-0.2337,-0.234,-0.2685,-0.2696,-0.2708,-0.2717,0,0,-0.2742,-0.2747,0,0,0,0,0,0,0,0,-0.1529,-0.1528,-0.1615,-0.1618,-0.1621,-0.1995,-0.2002,-0.2009,-0.2331,-0.2334,-0.2336,-0.2339,-0.2688,-0.2697,-0.2706,0,0,0,0,0,0,0,0,0,0,0,0,0,0,0,-0.1615,-0.1618,0,-0.1996,-0.2002,-0.2007,-0.2332,-0.2334,-0.2336,-0.2338,-0.2691,-0.2698,-0.2706,0,0,0,0,0,0,0,0,0,0,0,0,0,0,0,0,0,0,0,0,0,0,0,0,0,0,0,0,0,0,0,0,0,0,0,0,0,0,0,0,0,0,0,0,0,0,0,0,0,0,0,0,0,0,0,0,0,0,0,0,0,0,0,0,0,0,0,0,0]}],[{"header":{"parameterUnit":"kt","parameterCategory":2,"dx":1,"dy":1,"la1":30.253999710083008,"la2":30.299108505249023,"lo1":-89.0895004272461,"lo2":-89.04439544677734,"nx":28,"ny":28,"refTime":"2022-10-14T21:00:00:Z","depth":"2","parameterNumber":3,"parameterNumberName":"V-component_of_CURRENTS"},"data":[-0.0779,-0.0891,-0.1012,-0.1026,-0.1008,-0.0951,-0.0911,-0.0799,-0.0659,-0.0436,-0.0254,-0.0199,-0.0309,-0.0291,-0.0468,-0.0506,-0.0455,-0.0519,-0.0677,-0.0441,-0.0424,-0.0479,-0.0475,0,0,0,0,0,-0.0811,-0.0825,-0.0932,-0.0985,-0.0966,-0.0933,-0.0882,-0.0814,-0.075,-0.0598,-0.0539,-0.0433,-0.0442,-0.0444,-0.0506,-0.0644,-0.0551,-0.0674,-0.0493,-0.0482,-0.047,-0.047,-0.0595,-0.0594,-0.0593,-0.0592,0,0,-0.0718,-0.0805,-0.0893,-0.0932,-0.0907,-0.0869,-0.0871,-0.0804,-0.0729,-0.0611,-0.0688,-0.0564,-0.0608,-0.051,-0.0579,-0.061,-0.0644,-0.0632,-0.0618,-0.0604,-0.0621,-0.0651,-0.0782,-0.0783,-0.0783,-0.0783,-0.0784,0,-0.0722,-0.0723,-0.0821,-0.0846,-0.0861,-0.0847,-0.0831,-0.08,-0.0655,-0.0603,-0.0608,-0.06,-0.06,-0.0568,-0.0555,-0.0578,-0.0458,-0.0513,-0.0432,-0.0309,-0.0328,-0.027,-0.0252,-0.0396,-0.0394,-0.0393,-0.0392,-0.0391,-0.0694,-0.0684,-0.0784,-0.0796,-0.0864,-0.0822,-0.077,-0.0673,-0.0615,-0.0521,-0.0524,-0.046,-0.0462,-0.046,-0.0434,-0.0427,-0.0373,-0.0459,-0.0423,-0.0363,-0.0309,-0.0291,-0.0275,-0.0372,-0.0374,-0.0376,-0.0378,0,-0.0686,-0.07,-0.075,-0.0798,-0.0811,-0.0783,-0.0752,-0.0678,-0.0527,-0.0469,-0.0411,-0.0331,-0.0305,-0.0251,-0.0176,-0.0229,-0.0231,-0.0262,-0.0225,-0.0193,-0.0254,-0.0243,-0.0424,-0.043,-0.0435,-0.0439,-0.0442,0,-0.0722,-0.0716,-0.0767,-0.0807,-0.081,-0.0754,-0.0701,-0.065,-0.0525,-0.0486,-0.0364,-0.0344,-0.0206,-0.0196,-0.0135,-0.0176,-0.0116,-0.0162,-0.0128,-0.0066,-0.0069,-0.0025,-0.0025,-0.0018,-0.0018,-0.0017,-0.0017,0,-0.0675,-0.0756,-0.0769,-0.0803,-0.0817,-0.0803,-0.0773,-0.0652,-0.0588,-0.0461,-0.0399,-0.033,-0.0199,-0.0197,-0.0063,-0.0028,-0.0045,0.0045,-0.0069,-0.0075,-0.0139,-0.0149,-0.0016,-0.0016,-0.0016,-0.0016,-0.0016,0,-0.0748,-0.0761,-0.0782,-0.084,-0.0835,-0.0841,-0.0726,-0.0672,-0.059,-0.0517,-0.0445,-0.0354,-0.0211,-0.0155,-0.0061,-0.003,0.0036,0.0109,0.011,-0.0124,-0.0022,-0.0074,-0.0025,0.0174,0.0175,0.0177,0.0178,0,-0.076,-0.0778,-0.0805,-0.0835,-0.0852,-0.0854,-0.0766,-0.0735,-0.0675,-0.0581,-0.0485,-0.0298,-0.0219,-0.0029,-0.0016,0.0187,0.0174,0.0218,0.0131,0.0125,-0.0028,0.0023,0.0067,0.0002,0.0196,0.0194,0.0192,0,-0.0745,-0.0837,-0.0823,-0.0875,-0.0875,-0.0871,-0.0792,-0.0788,-0.0738,-0.0642,-0.0569,-0.0269,-0.0185,-0.0103,0.01,0.0128,0.021,0.0175,0.0171,0.011,0.0189,0.0066,0.0043,0.0273,0.0271,0.0269,0.0207,0,-0.0798,-0.0852,-0.0832,-0.0876,-0.0849,-0.089,-0.0895,-0.0815,-0.0747,-0.074,-0.055,-0.0346,-0.0176,-0.0009,0.008,0.0219,0.0196,0.0227,0.0103,0.0197,0.0169,0.0159,0.0231,0.0227,0.0225,0.0222,0,0,-0.0801,-0.0888,-0.09,-0.09,-0.0919,-0.0954,-0.0967,-0.0928,-0.085,-0.0808,-0.0748,-0.0418,-0.0258,-0.0072,0.005,0.0141,0.0106,0.0072,0.0188,0.0186,0.0182,0.0158,0.0151,0.0218,0.0216,0.0216,0.0215,0,-0.0848,-0.0901,-0.0904,-0.0943,-0.098,-0.0983,-0.0989,-0.0961,-0.0901,-0.0811,-0.0666,-0.0481,-0.0296,-0.0157,-0.0084,0.0094,0.005,0.0206,0.0164,0.017,0.0171,0.0171,0.0148,0.0144,0.0208,0.0208,0.0209,0,-0.0901,-0.0942,-0.0986,-0.1058,-0.1053,-0.1061,-0.1059,-0.1038,-0.1022,-0.0935,-0.075,-0.0598,-0.0491,-0.0295,-0.0211,-0.0266,-0.0071,-0.0053,-0.0038,-0.0183,-0.019,-0.0185,-0.0181,-0.025,-0.0252,-0.0253,0,0,-0.0911,-0.0946,-0.1058,-0.1087,-0.1092,-0.1095,-0.1065,-0.1064,-0.1,-0.0936,-0.0812,-0.068,-0.0542,-0.0472,-0.0356,-0.0226,-0.0316,-0.0107,-0.0085,-0.0067,-0.0197,-0.0201,-0.0195,-0.0258,-0.0258,-0.0258,0,0,-0.0911,-0.1035,-0.1098,-0.1126,-0.1173,-0.1162,-0.108,-0.1077,-0.0946,-0.0904,-0.0816,-0.0785,-0.0596,-0.0584,-0.0657,-0.0341,-0.0435,-0.0419,-0.0332,-0.0305,-0.0284,-0.0464,-0.0631,0,0,0,0,0,-0.1064,-0.1051,-0.1111,-0.1131,-0.1171,-0.1187,-0.1169,-0.1091,-0.1038,-0.0994,-0.0875,-0.085,-0.0579,-0.0643,-0.062,-0.0469,-0.0319,-0.0308,-0.0298,-0.0153,-0.0125,-0.0101,0,0,0,0,0,0,-0.1074,-0.1106,-0.1109,-0.113,-0.1137,-0.1185,-0.1128,-0.1102,-0.1039,-0.1022,-0.0871,-0.0848,-0.0787,-0.0651,-0.0632,-0.0487,-0.0638,-0.0315,-0.0306,-0.0297,-0.0143,-0.012,-0.01,0,0,0,0,0,-0.1081,-0.1107,-0.122,-0.112,-0.1127,-0.1051,-0.1124,-0.1102,-0.1009,-0.0941,-0.0912,-0.0954,-0.0791,-0.0765,-0.0639,-0.0495,-0.0651,-0.0644,-0.0309,-0.0302,-0.0295,-0.0132,0,0,0,0,0,0,-0.1086,-0.1014,-0.1214,-0.1208,-0.1112,-0.1039,-0.1036,-0.1103,-0.0925,-0.0903,-0.1027,-0.1017,-0.0793,-0.0773,-0.0754,-0.0496,-0.0662,-0.0655,-0.065,-0.0303,-0.0298,-0.0293,0,0,0,0,0,0,-0.1001,-0.1011,-0.1209,-0.1205,-0.1195,-0.1029,-0.1028,-0.0962,-0.0922,-0.1012,-0.1003,-0.1025,-0.0831,-0.0779,-0.0764,-0.066,-0.067,-0.0663,-0.0658,-0.0655,-0.0299,-0.0294,0,0,0,0,0,0,-0.1001,-0.1008,-0.1203,-0.1197,-0.1188,-0.1087,-0.096,-0.0993,-0.0955,-0.1018,-0.095,-0.0948,-0.084,-0.0821,-0.077,-0.0674,-0.0664,-0.067,-0.0665,-0.0662,-0.066,0,0,0,0,0,0,0,-0.1,-0.1007,-0.1284,-0.119,-0.1182,-0.1154,-0.1149,-0.1144,-0.0955,-0.0953,-0.0951,-0.0949,-0.071,-0.0703,-0.0695,-0.0685,0,0,-0.0671,-0.0667,0,0,0,0,0,0,0,0,-0.0998,-0.1005,-0.1284,-0.1284,-0.1285,-0.1153,-0.1149,-0.1145,-0.0955,-0.0953,-0.0951,-0.095,-0.0708,-0.0702,-0.0696,0,0,0,0,0,0,0,0,0,0,0,0,0,0,0,-0.1284,-0.1284,0,-0.1153,-0.115,-0.1146,-0.0954,-0.0953,-0.0952,-0.095,-0.0707,-0.0702,-0.0696,0,0,0,0,0,0,0,0,0,0,0,0,0,0,0,0,0,0,0,0,0,0,0,0,0,0,0,0,0,0,0,0,0,0,0,0,0,0,0,0,0,0,0,0,0,0,0,0,0,0,0,0,0,0,0,0,0,0,0,0,0,0,0,0,0,0,0,0,0]}]],[[{"header":{"parameterUnit":"kt","parameterCategory":2,"dx":1,"dy":1,"la1":30.253999710083008,"la2":30.299108505249023,"lo1":-89.0895004272461,"lo2":-89.04439544677734,"nx":28,"ny":28,"refTime":"2022-10-14T21:00:00:Z","depth":"4","parameterNumber":2,"parameterNumberName":"U-component_of_CURRENTS"},"data":[-0.0218,-0.021,-0.0165,-0.0089,-0.0044,-0.0007,0.001,0.0002,0.0023,0.0013,0.0054,0.0097,0.0176,0.0081,0.0278,0.0301,0.0221,0.0425,0.0429,0.0226,0.0204,0.0185,0.012,0,0,0,0,0,-0.024,-0.0212,-0.0166,-0.0119,-0.0083,-0.0057,-0.0035,-0.0037,-0.0048,-0.0006,-0.0024,0.0039,0.0154,0.0176,0.0275,0.0261,0.0225,0.0387,0.0214,0.0213,0.0189,0.0134,0,0,0,0,0,0,-0.0246,-0.0228,-0.0221,-0.0169,-0.0132,-0.0088,-0.0076,-0.005,-0.0045,-0.0061,-0.0037,-0.0006,-0.0007,0.0115,0.0188,0.0266,0.0216,0.0218,0.0195,0.0173,0.0136,0.0185,0.0458,0,0,0,0,0,-0.0256,-0.0272,-0.0263,-0.0213,-0.0181,-0.0149,-0.0119,-0.011,-0.013,-0.0148,-0.0113,-0.006,0.0014,0.0034,0.0143,0.0151,0.0041,0.0131,0.0114,-0.0069,-0.0041,-0.0052,-0.0076,0.0098,0.0095,0.0093,0.0092,0,-0.029,-0.029,-0.028,-0.0256,-0.0252,-0.0217,-0.0204,-0.0222,-0.0217,-0.0219,-0.0201,-0.0165,-0.0187,-0.0025,-0.0064,0.0011,-0.002,0.0071,-0.0125,-0.0081,-0.0082,-0.0102,-0.0119,0.0072,0.0074,0.0076,0.0077,0,-0.033,-0.0332,-0.032,-0.0322,-0.0313,-0.0289,-0.0278,-0.0272,-0.0293,-0.0273,-0.0267,-0.0313,-0.028,-0.0286,-0.0288,-0.0261,-0.0209,-0.016,-0.0342,-0.0343,-0.0148,-0.0158,0.0041,0.0048,0.0054,0.0059,0.0063,0,-0.0372,-0.0366,-0.0363,-0.0356,-0.0336,-0.0358,-0.0341,-0.0358,-0.037,-0.0359,-0.0408,-0.0409,-0.0479,-0.0447,-0.0483,-0.0389,-0.0451,-0.0401,-0.0379,-0.0637,-0.0645,-0.0634,-0.0643,-0.0577,-0.0578,-0.0579,-0.0581,0,-0.0407,-0.0412,-0.0392,-0.0399,-0.0421,-0.0414,-0.0413,-0.0441,-0.0441,-0.0445,-0.0444,-0.0493,-0.0506,-0.0527,-0.0561,-0.0625,-0.0525,-0.0616,-0.0454,-0.0441,-0.0645,-0.0652,-0.0582,-0.0582,-0.0583,-0.0583,-0.0584,0,-0.0452,-0.0449,-0.0432,-0.0446,-0.0443,-0.0448,-0.0456,-0.0466,-0.0482,-0.0496,-0.0527,-0.0568,-0.0607,-0.0665,-0.0683,-0.0721,-0.0722,-0.0735,-0.0729,-0.0583,-0.0594,-0.0664,-0.0646,-0.0647,-0.0649,-0.065,-0.0651,0,-0.0476,-0.0459,-0.0485,-0.048,-0.0471,-0.0496,-0.0513,-0.0522,-0.0538,-0.054,-0.059,-0.0631,-0.0711,-0.0749,-0.0773,-0.0821,-0.0794,-0.0858,-0.0772,-0.0767,-0.06,-0.0547,-0.0856,-0.0671,-0.0669,-0.0667,-0.0666,0,-0.0495,-0.0509,-0.051,-0.0508,-0.0532,-0.0516,-0.0535,-0.0536,-0.054,-0.0573,-0.057,-0.0696,-0.0724,-0.077,-0.0845,-0.0854,-0.0817,-0.088,-0.088,-0.0769,-0.0742,-0.0589,-0.0562,-0.086,-0.086,-0.0859,-0.0679,0,-0.0517,-0.0533,-0.0524,-0.0539,-0.0537,-0.0528,-0.0538,-0.0546,-0.0562,-0.0572,-0.0627,-0.0703,-0.0765,-0.0815,-0.0865,-0.0903,-0.0877,-0.0917,-0.0885,-0.0904,-0.0824,-0.0813,-0.0944,-0.0945,-0.0945,-0.0945,0,0,-0.0536,-0.0548,-0.0556,-0.0554,-0.0549,-0.0553,-0.0545,-0.0555,-0.0577,-0.0581,-0.0597,-0.0713,-0.0772,-0.0843,-0.0876,-0.0912,-0.0882,-0.0895,-0.0915,-0.0912,-0.0909,-0.0832,-0.0822,-0.0945,-0.0946,-0.0946,-0.0946,0,-0.0544,-0.0566,-0.0565,-0.0565,-0.0552,-0.0553,-0.0552,-0.055,-0.0556,-0.059,-0.0639,-0.0696,-0.0771,-0.0818,-0.0855,-0.091,-0.0883,-0.0949,-0.0926,-0.0918,-0.0914,-0.0911,-0.0835,-0.0825,-0.0946,-0.0946,-0.0946,0,-0.056,-0.0567,-0.0574,-0.0577,-0.0565,-0.0561,-0.0559,-0.0544,-0.0552,-0.0591,-0.0622,-0.0677,-0.0743,-0.08,-0.083,-0.0821,-0.086,-0.0891,-0.0892,-0.0869,-0.0859,-0.0856,-0.0854,-0.0874,-0.0873,-0.0873,0,0,-0.0564,-0.0579,-0.0573,-0.0576,-0.0568,-0.0562,-0.0554,-0.0554,-0.057,-0.0581,-0.0613,-0.0666,-0.0724,-0.0749,-0.0797,-0.0845,-0.0815,-0.0878,-0.0882,-0.0884,-0.0863,-0.0854,-0.0853,-0.087,-0.087,-0.087,0,0,-0.0557,-0.0567,-0.0575,-0.0582,-0.057,-0.0556,-0.0543,-0.0551,-0.0579,-0.0587,-0.0622,-0.0633,-0.0694,-0.072,-0.0686,-0.0793,-0.0784,-0.0792,-0.0758,-0.0763,-0.0766,-0.0725,-0.0689,0,0,0,0,0,-0.0561,-0.0566,-0.0575,-0.0574,-0.0576,-0.0557,-0.0555,-0.0547,-0.0556,-0.0554,-0.0595,-0.0603,-0.0716,-0.0685,-0.0696,-0.0724,-0.0841,-0.0846,-0.0851,-0.0821,-0.0826,-0.083,0,0,0,0,0,0,-0.0561,-0.0563,-0.0573,-0.0562,-0.0561,-0.0558,-0.0561,-0.056,-0.0556,-0.0556,-0.0596,-0.0604,-0.0624,-0.0681,-0.0691,-0.0716,-0.0686,-0.0843,-0.0847,-0.0851,-0.0823,-0.0827,-0.083,0,0,0,0,0,-0.056,-0.0562,-0.0573,-0.0561,-0.056,-0.0546,-0.0562,-0.0561,-0.0566,-0.0588,-0.0595,-0.0558,-0.0623,-0.0634,-0.0687,-0.0711,-0.068,-0.0683,-0.0846,-0.0849,-0.0852,-0.0825,0,0,0,0,0,0,-0.056,-0.0566,-0.0572,-0.057,-0.056,-0.0546,-0.0547,-0.0561,-0.06,-0.0603,-0.0552,-0.0553,-0.0623,-0.0631,-0.0639,-0.0709,-0.0674,-0.0678,-0.068,-0.0848,-0.0851,-0.0854,0,0,0,0,0,0,-0.0564,-0.0566,-0.0571,-0.057,-0.0569,-0.0546,-0.0547,-0.0584,-0.0603,-0.0565,-0.0564,-0.0552,-0.0627,-0.0629,-0.0636,-0.0693,-0.067,-0.0673,-0.0676,-0.0677,-0.0851,-0.0853,0,0,0,0,0,0,-0.0564,-0.0565,-0.0571,-0.057,-0.0569,-0.0551,-0.0581,-0.0599,-0.0555,-0.0566,-0.0555,-0.0555,-0.0626,-0.0632,-0.0633,-0.0687,-0.0692,-0.067,-0.0672,-0.0674,-0.0675,0,0,0,0,0,0,0,-0.0564,-0.0568,-0.0576,-0.057,-0.0569,-0.055,-0.055,-0.055,-0.0555,-0.0555,-0.0555,-0.0555,-0.065,-0.0654,-0.0658,-0.0683,0,0,-0.067,-0.0671,0,0,0,0,0,0,0,0,-0.0566,-0.0567,-0.0576,-0.0575,-0.0574,-0.055,-0.055,-0.055,-0.0555,-0.0555,-0.0555,-0.0555,-0.0651,-0.0654,-0.0657,0,0,0,0,0,0,0,0,0,0,0,0,0,0,0,-0.0576,-0.0575,0,-0.055,-0.055,-0.055,-0.0555,-0.0555,-0.0555,-0.0555,-0.0652,-0.0655,-0.0657,0,0,0,0,0,0,0,0,0,0,0,0,0,0,0,0,0,0,0,0,0,0,0,0,0,0,0,0,0,0,0,0,0,0,0,0,0,0,0,0,0,0,0,0,0,0,0,0,0,0,0,0,0,0,0,0,0,0,0,0,0,0,0,0,0,0,0,0,0]}],[{"header":{"parameterUnit":"kt","parameterCategory":2,"dx":1,"dy":1,"la1":30.253999710083008,"la2":30.299108505249023,"lo1":-89.0895004272461,"lo2":-89.04439544677734,"nx":28,"ny":28,"refTime":"2022-10-14T21:00:00:Z","depth":"4","parameterNumber":3,"parameterNumberName":"V-component_of_CURRENTS"},"data":[-0.089,-0.0903,-0.0899,-0.0918,-0.093,-0.0958,-0.0957,-0.0974,-0.0921,-0.0954,-0.0931,-0.0962,-0.0946,-0.0999,-0.0939,-0.0946,-0.1034,-0.1025,-0.1022,-0.1224,-0.1242,-0.1258,-0.1241,0,0,0,0,0,-0.0904,-0.09,-0.0919,-0.0953,-0.0993,-0.1007,-0.1031,-0.1052,-0.109,-0.1009,-0.1061,-0.1009,-0.0983,-0.1027,-0.0951,-0.1091,-0.1152,-0.1006,-0.1176,-0.1235,-0.1255,-0.1232,0,0,0,0,0,0,-0.091,-0.0915,-0.0958,-0.0993,-0.1037,-0.1039,-0.1061,-0.1066,-0.1091,-0.117,-0.1124,-0.1172,-0.1221,-0.1185,-0.1137,-0.1101,-0.1121,-0.1125,-0.1149,-0.1168,-0.113,-0.1013,-0.0863,0,0,0,0,0,-0.0922,-0.0953,-0.0997,-0.1032,-0.1082,-0.1113,-0.1177,-0.117,-0.1273,-0.1357,-0.1319,-0.1322,-0.1287,-0.1298,-0.1249,-0.1224,-0.1424,-0.1339,-0.1351,-0.1421,-0.1352,-0.1343,-0.135,-0.1329,-0.1331,-0.1333,-0.1334,0,-0.0921,-0.0963,-0.1042,-0.1069,-0.1137,-0.1209,-0.1253,-0.137,-0.1398,-0.1493,-0.1482,-0.1522,-0.1541,-0.1416,-0.1476,-0.1426,-0.1411,-0.1389,-0.1463,-0.1383,-0.1369,-0.1372,-0.1374,-0.135,-0.1348,-0.1347,-0.1346,0,-0.0907,-0.0986,-0.106,-0.1174,-0.1205,-0.1257,-0.1361,-0.1413,-0.1528,-0.1556,-0.1589,-0.1678,-0.1662,-0.1665,-0.1688,-0.163,-0.1588,-0.1527,-0.1629,-0.1619,-0.1405,-0.14,-0.1376,-0.137,-0.1365,-0.1361,-0.1357,0,-0.0927,-0.0992,-0.1095,-0.1138,-0.1211,-0.131,-0.1395,-0.1475,-0.1567,-0.1584,-0.1694,-0.1688,-0.1766,-0.1747,-0.1735,-0.1635,-0.1737,-0.1586,-0.1568,-0.1729,-0.1723,-0.1724,-0.1717,-0.179,-0.1791,-0.1791,-0.1791,0,-0.0909,-0.1021,-0.1101,-0.1137,-0.125,-0.1317,-0.1376,-0.1467,-0.1508,-0.1621,-0.1651,-0.1709,-0.1727,-0.1754,-0.1712,-0.1732,-0.1724,-0.176,-0.1593,-0.1578,-0.1723,-0.1716,-0.1792,-0.1792,-0.1792,-0.1792,-0.1792,0,-0.0945,-0.0999,-0.1092,-0.1198,-0.1226,-0.1276,-0.1378,-0.1431,-0.151,-0.1551,-0.1597,-0.1617,-0.1662,-0.1641,-0.168,-0.1674,-0.167,-0.1672,-0.1671,-0.152,-0.1479,-0.156,-0.1616,-0.1615,-0.1615,-0.1614,-0.1613,0,-0.0924,-0.1008,-0.1063,-0.1137,-0.1182,-0.1241,-0.1292,-0.1348,-0.1394,-0.1459,-0.1475,-0.1536,-0.1507,-0.1547,-0.1574,-0.1613,-0.1623,-0.1607,-0.1627,-0.1626,-0.1478,-0.1499,-0.1656,-0.1603,-0.1604,-0.1605,-0.1606,0,-0.0895,-0.1003,-0.1012,-0.1054,-0.1127,-0.1163,-0.1216,-0.1286,-0.1339,-0.1367,-0.1439,-0.1466,-0.149,-0.1504,-0.152,-0.1553,-0.1599,-0.1554,-0.1556,-0.1522,-0.1662,-0.1503,-0.1493,-0.1645,-0.1647,-0.1649,-0.1599,0,-0.0918,-0.0966,-0.0994,-0.1051,-0.1089,-0.1144,-0.1187,-0.1228,-0.1263,-0.1301,-0.1363,-0.1384,-0.1436,-0.144,-0.1445,-0.1512,-0.1484,-0.1505,-0.1486,-0.1531,-0.1497,-0.1502,-0.1425,-0.1424,-0.1423,-0.1423,0,0,-0.0879,-0.0935,-0.0967,-0.1009,-0.1053,-0.1088,-0.1138,-0.1169,-0.1247,-0.1285,-0.1277,-0.1354,-0.1365,-0.1414,-0.1434,-0.1433,-0.1436,-0.1419,-0.1502,-0.151,-0.1518,-0.1489,-0.1495,-0.1422,-0.1422,-0.1422,-0.1421,0,-0.0888,-0.0917,-0.0948,-0.0987,-0.1053,-0.1087,-0.1104,-0.1183,-0.122,-0.1262,-0.1292,-0.1328,-0.1346,-0.1376,-0.1385,-0.1422,-0.1408,-0.1422,-0.1443,-0.1495,-0.1505,-0.1513,-0.1486,-0.1492,-0.142,-0.142,-0.142,0,-0.0871,-0.0914,-0.0932,-0.0997,-0.1042,-0.1083,-0.1116,-0.1175,-0.1211,-0.1224,-0.128,-0.1299,-0.1311,-0.134,-0.1351,-0.1338,-0.1381,-0.1362,-0.1365,-0.1367,-0.142,-0.143,-0.144,-0.132,-0.1319,-0.1319,0,0,-0.0875,-0.0907,-0.097,-0.1004,-0.1028,-0.1093,-0.1126,-0.1165,-0.1213,-0.1235,-0.126,-0.1282,-0.1301,-0.1309,-0.1324,-0.1338,-0.1339,-0.135,-0.1354,-0.1358,-0.1363,-0.1416,-0.1426,-0.1318,-0.1318,-0.1318,0,0,-0.0886,-0.0955,-0.0966,-0.1009,-0.1057,-0.1134,-0.1162,-0.1196,-0.1237,-0.1246,-0.126,-0.1264,-0.1293,-0.1289,-0.1274,-0.1315,-0.1296,-0.1298,-0.1317,-0.1323,-0.1327,-0.1331,-0.1262,0,0,0,0,0,-0.0922,-0.0943,-0.0952,-0.0967,-0.1057,-0.1121,-0.1134,-0.1189,-0.121,-0.1229,-0.1258,-0.1248,-0.1291,-0.1278,-0.1278,-0.1293,-0.1303,-0.1306,-0.1308,-0.1336,-0.1342,-0.1347,0,0,0,0,0,0,-0.0928,-0.0945,-0.0952,-0.1027,-0.1048,-0.1121,-0.1147,-0.1162,-0.121,-0.1216,-0.1246,-0.1248,-0.1253,-0.1277,-0.1278,-0.1292,-0.1262,-0.1304,-0.1306,-0.1308,-0.1338,-0.1343,-0.1347,0,0,0,0,0,-0.0933,-0.0947,-0.1077,-0.1027,-0.1046,-0.1121,-0.1147,-0.116,-0.1201,-0.1219,-0.1225,-0.1243,-0.1252,-0.1253,-0.1277,-0.1293,-0.1261,-0.1262,-0.1305,-0.1307,-0.1309,-0.134,0,0,0,0,0,0,-0.0937,-0.0958,-0.1082,-0.109,-0.1028,-0.1119,-0.1134,-0.1157,-0.1201,-0.121,-0.1212,-0.1216,-0.1251,-0.1253,-0.1253,-0.1294,-0.1261,-0.1261,-0.1261,-0.1307,-0.1308,-0.1309,0,0,0,0,0,0,-0.0952,-0.0964,-0.1086,-0.1084,-0.1092,-0.1117,-0.113,-0.1129,-0.1198,-0.1191,-0.1197,-0.1213,-0.1229,-0.1252,-0.1253,-0.1251,-0.1261,-0.1261,-0.1261,-0.1261,-0.1308,-0.1309,0,0,0,0,0,0,-0.0958,-0.0969,-0.1082,-0.1089,-0.1096,-0.1189,-0.1114,-0.119,-0.1241,-0.1186,-0.1243,-0.1244,-0.1226,-0.1229,-0.1252,-0.125,-0.1251,-0.1261,-0.1261,-0.1261,-0.1261,0,0,0,0,0,0,0,-0.0964,-0.0873,-0.1036,-0.1092,-0.1099,-0.1164,-0.1166,-0.1168,-0.1242,-0.1242,-0.1243,-0.1243,-0.126,-0.126,-0.1261,-0.125,0,0,-0.1261,-0.1261,0,0,0,0,0,0,0,0,-0.087,-0.0873,-0.1036,-0.1038,-0.104,-0.1164,-0.1166,-0.1168,-0.1242,-0.1242,-0.1243,-0.1243,-0.126,-0.126,-0.1261,0,0,0,0,0,0,0,0,0,0,0,0,0,0,0,-0.1036,-0.1038,0,-0.1165,-0.1166,-0.1167,-0.1242,-0.1242,-0.1242,-0.1243,-0.126,-0.126,-0.1261,0,0,0,0,0,0,0,0,0,0,0,0,0,0,0,0,0,0,0,0,0,0,0,0,0,0,0,0,0,0,0,0,0,0,0,0,0,0,0,0,0,0,0,0,0,0,0,0,0,0,0,0,0,0,0,0,0,0,0,0,0,0,0,0,0,0,0,0,0]}]]]